默认 日期 大小 文件数 浏览量 最新下载 xml
dead day磁力链接相关资源由用户搜索指令自动获取,结果来源于网络,本站不存储任何资料,亦不承担任何责任,请于24小时内删除,搜索到937个磁力,用时6ms。
    {"sample": {"sample.mkv": 43514616}, "Day of the Dead 1985 720p Kan98426.mkv": 2029915090, "_____padding_file_0_if you see this file, please update to BitComet 0.85 or above____": 1288}
创建时间: 2019-11-16 06:59:39 大小:1.93 GB 文件数量:3 热度:4 最近下载:2022-11-15 19:56:31
    ... ń umarłych - Candyman 3 Day of the Dead 1999 [720p.BRRip.XviD ...
创建时间: 2019-12-08 23:52:02 大小:1.72 GB 文件数量:4 热度:4 最近下载:2023-12-28 00:23:02
    ... .I.Speak.for.the.Dead.S03E01.Wedding.Day.XviD-AFG.avi": 493807976 ... , "The.Coroner.I.Speak.for.the.Dead ... .S03E01.Wedding.Day.XviD-AFG.nfo": 1162 ...
创建时间: 2019-12-11 04:44:18 大小:471.83 MB 文件数量:6 热度:8 最近下载:2025-09-20 05:51:01
    ... .I.Speak.for.the.Dead.S03E01.Wedding.Day.1080p.WEB.x264-LiGATE ... .I.Speak.for.the.Dead.S03E01.Wedding.Day.1080p.WEB.x264-LiGATE ...
创建时间: 2019-12-19 03:00:59 大小:1.98 GB 文件数量:8 热度:7 最近下载:2025-09-15 16:45:04
    {"xbox360fan.png": 17686, "Day Of The Dead (1985) 1080p SATRip h264 5.1 xbox360fan.mp4": 1796455339, "Day Of The Dead (1985) 1080p SATRip h264 5.1 xbox360fan.nfo": 3041}
创建时间: 2019-12-20 03:23:13 大小:1.67 GB 文件数量:3 热度:4 最近下载:2023-12-28 21:11:05
    ... .mp3": 6644544, "02-hollywood-undead-day-dead.mp3": 9416897, "03-hollywood-undead ...
创建时间: 2019-12-24 05:56:03 大小:127.76 MB 文件数量:16 热度:4 最近下载:2023-12-30 04:38:04
    {"readme.txt": 8733, "Torrent-Downloaded-From-ExtraTorrent.cc.txt": 352, "Day.of.the.Dead.2008.720p.BluRay.x264.AC3-NoHaTE.mkv": 3827100516, "Day.of.the.Dead.2008.720p.BluRay.x264.AC3-NoHaTE.nfo": 8597}
创建时间: 2019-12-28 04:24:12 大小:3.56 GB 文件数量:4 热度:6 最近下载:2023-12-31 03:06:06
    {"fiend-tmdodotd.avi": 365785088, "fiend-tmdodotd.nfo": 10167, "www.Torrenting.com.txt": 509, "READ this before playing the Movie.txt": 509}
创建时间: 2019-12-28 06:48:18 大小:348.85 MB 文件数量:4 热度:6 最近下载:2025-04-05 13:36:02
    ... , "The Day of the Dead.txt": 1420, "20 Day of the Dead Wallpapers": {"1 ...
创建时间: 2020-01-06 05:22:01 大小:6.91 MB 文件数量:23 热度:12 最近下载:2025-09-21 14:40:02
    {"RARBG.avi": 1190542, "RARBG.txt": 30, "Day.Of.The.Dead.1985.UNRATED.REMASTERED.BRRip.XviD.MP3-RARBG.avi": 1367406810, "Day.Of.The.Dead.1985.UNRATED.REMASTERED.BRRip.XviD.MP3-RARBG.nfo": 3256}
创建时间: 2020-01-06 21:27:43 大小:1.27 GB 文件数量:4 热度:5 最近下载:2022-04-08 06:29:23
    {"Day of the Dead Bloodline_(2018) วันนรกเดือด มฤตยูซอมบี้สยอง [DVD Master Rip To MKV] 17.mkv": 1873623808}
创建时间: 2020-01-18 20:51:01 大小:1.74 GB 文件数量:1 热度:5 最近下载:2023-04-24 21:50:23
    ... Day.Of.The.Dead-SAMPLE.mkv": 105610008, "CHD-Day.Of.The.Dead ... .2008.nfo": 7086, "Day.Of.The.Dead_AutoSplit.rar": 2001482, "Day ... .Of.The.Dead ... , "Day.Of.The.Dead.2008.Bluray ...
创建时间: 2020-01-21 11:17:24 大小:6.69 GB 文件数量:10 热度:13 最近下载:2025-01-29 22:16:04
    {"readme.nfo": 7971, "readme.txt": 8027, "ewdp-dayotd.xvid.r00": 15000000, "ewdp-dayotd.xvid.r01": 15000000, "ewdp-dayotd.xvid.r02": 15000000, "ewdp-dayotd.xvid.r03": 15000000, "ewdp-dayotd.xvid.r04": 15000000, "ewdp-dayotd.xvid.r05": 15000000, "ewdp- ...
创建时间: 2020-01-21 14:14:02 大小:700.09 MB 文件数量:53 热度:4 最近下载:2022-04-09 06:23:32
    {"CalaveraDayDeadCE.exe": 750759891, "tracked_by_h33t_com.txt": 185}
创建时间: 2020-01-22 10:35:38 大小:715.98 MB 文件数量:2 热度:3 最近下载:2022-04-09 05:46:39
    {"Torrent Downloaded From ExtraTorrent.cc.txt": 59, "Atlantis.2x05.The.Day.Of.Th.Dead.HDTV.XviD-FUM.avi": 365232046}
创建时间: 2020-01-25 14:42:28 大小:348.31 MB 文件数量:2 热度:3 最近下载:2022-04-10 06:08:59
    {"Day.Of.The.Dead.2008.Blu-ray.Remux.1080p.H264.DTS-HDMA-HDS.ts": 15506343024, "Day.Of.The.Dead.2008.Blu-ray.Remux.1080p.H264.DTS-HDMA-HDS.sample.ts": 104857564}
创建时间: 2020-01-25 20:13:19 大小:14.54 GB 文件数量:2 热度:14 最近下载:2024-08-12 16:36:01
    ... There .mp3": 9813918, "03. Day Of The Dead.mp3": 9473120, "10. Party ...
创建时间: 2020-01-31 02:24:11 大小:135.99 MB 文件数量:16 热度:3 最近下载:2025-05-29 22:48:01
    {"11. Qosmio - Insomnia (Original Mix).mp3": 16799955, "02. Origin - Shapeshifter (Original Mix).mp3": 17388240, "10. Javy X - Full Metal Sword (G8 Remix).mp3": 19618053, "09. Project 8 - Relentless (Original Mix).mp3": 16718462, "07. Kinetica - Mind ...
创建时间: 2020-03-05 19:48:54 大小:255.69 MB 文件数量:15 热度:5 最近下载:2025-03-11 05:35:02
    ... Suspects.flac": 31590650, "03 Day Of The Dead.flac": 31603078, "10 Party ... By Myself.flac": 34018724, "Day Of The Dead [Clean].cue": 991, "Hollywood ... Undead - Day Of The Dead [Clean].log": 12550, "08 ...
创建时间: 2020-03-06 17:32:32 大小:350.36 MB 文件数量:14 热度:2 最近下载:2024-01-07 18:14:06
    ... Sister Is Dead And I Fuck Her Corpse Every Day-(gore grind ... Sister Is Dead And I Fuck Her Corpse Every Day.mp3": 4354830 ...
创建时间: 2020-03-25 13:30:49 大小:23.3 MB 文件数量:7 热度:26 最近下载:2025-09-17 02:51:17